Owosso, MI

11:21 PM EST on February 24, 2018 (GMT -0500)
Owosso

Weather History for KRNP - May, 2012

Change the Weather History Date:

Friday, May 18, 2012

  Actual Average (KFNT) Record (KFNT)
Temperature  
Mean Temperature 62 °F -  
Max Temperature 77 °F 70 °F 90 °F (1998)
Min Temperature 46 °F 46 °F 29 °F (1973)
Degree Days  
Heating Degree Days 4    
Growing Degree Days 12 (Base 50)    
Moisture  
Dew Point 41 °F    
Average Humidity 50    
Maximum Humidity 89    
Minimum Humidity 24    
Precipitation  
Precipitation 0.00 in - - ()
Sea Level Pressure  
Sea Level Pressure 30.11 in    
Wind  
Wind Speed 4 mph (SSE)    
Max Wind Speed 10 mph    
Max Gust Speed -    
Visibility 10 miles    
Events      
Averages and records for this station are not official NWS values.
T = Trace of Precipitation, MM = Missing Value Source: NWS Daily Summary

Daily Weather History Graph

Daily Weather History Graph

Search for Another Location

Airport or City:

Trip Planner

Search our weather history database for the weather conditions in past years. The results will help you decide how hot, cold, wet, or windy it might be!

Date:

Astronomy

May. 18, 2012 Rise Set
Actual Time 6:09 AM EDT 8:56 PM EDT
Civil Twilight 5:36 AM EDT 9:29 PM EDT
Nautical Twilight 4:55 AM EDT 10:11 PM EDT
Astronomical Twilight 4:07 AM EDT 11:00 PM EDT
Moon 4:41 AM EDT (5/18) 7:02 PM EDT (5/18)
Length of Visible Light 15h 52m
Length of Day
14h 46m
Waning Crescent, 5% of the Moon is Illuminated
May 18
Waning Crescent
May 20
New
May 28
First Quarter
Jun 4
Full
Jun 11
Last Quarter

Hourly Weather History & Observations

Time (EDT) Temp. Dew Point Humidity Pressure Visibility Wind Dir Wind Speed Gust Speed Precip Events Conditions
12:14 AM 51.8 °F 43.7 °F 74% 30.15 in 10.0 mi ESE 4.6 mph - N/A   Clear
12:35 AM 51.4 °F 44.2 °F 76% 30.15 in 10.0 mi ESE 4.6 mph - N/A   Clear
12:54 AM 51.8 °F 44.4 °F 76% 30.15 in 10.0 mi ESE 4.6 mph - N/A   Clear
1:15 AM 51.3 °F 44.8 °F 78% 30.14 in 10.0 mi SE 4.6 mph - N/A   Clear
1:34 AM 51.4 °F 44.2 °F 76% 30.14 in 10.0 mi SE 4.6 mph - N/A   Clear
1:54 AM 51.3 °F 43.9 °F 76% 30.14 in 10.0 mi Calm Calm - N/A   Clear
2:15 AM 51.3 °F 43.7 °F 75% 30.15 in 7.0 mi Calm Calm - N/A   Clear
2:34 AM 50.5 °F 43.5 °F 77% 30.13 in 10.0 mi SSE 3.5 mph - N/A   Clear
3:15 AM 50.2 °F 43.9 °F 79% 30.12 in 10.0 mi SSE 3.5 mph - N/A   Clear
3:34 AM 50.2 °F 43.9 °F 79% 30.13 in 10.0 mi Calm Calm - N/A   Clear
3:54 AM 50.0 °F 43.9 °F 79% 30.13 in 10.0 mi Calm Calm - N/A   Clear
4:15 AM 49.5 °F 44.1 °F 82% 30.13 in 10.0 mi Calm Calm - N/A   Clear
4:34 AM 49.1 °F 44.1 °F 83% 30.12 in 10.0 mi South 3.5 mph - N/A   Clear
4:54 AM 48.9 °F 44.1 °F 83% 30.13 in 10.0 mi South 4.6 mph - N/A   Clear
5:15 AM 48.2 °F 43.3 °F 83% 30.13 in 10.0 mi Calm Calm - N/A   Clear
5:34 AM 48.2 °F 43.5 °F 84% 30.13 in 10.0 mi Calm Calm - N/A   Clear
5:54 AM 48.6 °F 43.3 °F 82% 30.13 in 10.0 mi Calm Calm - N/A   Clear
6:14 AM 47.8 °F 42.8 °F 83% 30.13 in 10.0 mi Calm Calm - N/A   Clear
6:34 AM 46.8 °F 43.0 °F 87% 30.13 in 10.0 mi Calm Calm - N/A   Clear
6:55 AM 47.3 °F 44.1 °F 88% 30.14 in 10.0 mi Calm Calm - N/A   Clear
7:14 AM 48.4 °F 45.1 °F 89% 30.14 in 10.0 mi Calm Calm - N/A   Clear
7:35 AM 50.0 °F 44.4 °F 81% 30.15 in 10.0 mi Calm Calm - N/A   Clear
7:54 AM 51.4 °F 44.2 °F 76% 30.16 in 10.0 mi Calm Calm - N/A   Clear
8:14 AM 52.9 °F 44.6 °F 73% 30.16 in 10.0 mi South 4.6 mph - N/A   Clear
8:34 AM 55.0 °F 44.1 °F 67% 30.16 in 10.0 mi SSE 4.6 mph - N/A   Clear
8:54 AM 56.3 °F 42.4 °F 60% 30.17 in 10.0 mi South 5.8 mph - N/A   Scattered Clouds
9:15 AM 57.6 °F 40.6 °F 53% 30.17 in 10.0 mi South 5.8 mph - N/A   Mostly Cloudy
9:34 AM 59.9 °F 40.5 °F 49% 30.17 in 10.0 mi South 6.9 mph - N/A   Scattered Clouds
9:54 AM 61.2 °F 39.7 °F 45% 30.17 in 10.0 mi South 9.2 mph - N/A   Clear
10:15 AM 61.9 °F 38.3 °F 42% 30.16 in 10.0 mi SSE 6.9 mph - N/A   Clear
10:34 AM 62.8 °F 39.4 °F 42% 30.16 in 10.0 mi SE 5.8 mph - N/A   Clear
10:54 AM 63.9 °F 37.0 °F 37% 30.16 in 10.0 mi South 8.1 mph - N/A   Clear
11:15 AM 65.1 °F 38.1 °F 37% 30.15 in 10.0 mi SSE 6.9 mph - N/A   Clear
11:34 AM 65.7 °F 36.0 °F 33% 30.15 in 10.0 mi SE 5.8 mph - N/A   Clear
11:54 AM 67.1 °F 36.0 °F 32% 30.14 in 10.0 mi South 4.6 mph - N/A   Clear
12:14 PM 68.0 °F 36.9 °F 32% 30.14 in 10.0 mi SSW 5.8 mph - N/A   Clear
12:34 PM 69.3 °F 36.1 °F 30% 30.14 in 10.0 mi SE 4.6 mph - N/A   Clear
12:55 PM 69.6 °F 37.9 °F 31% 30.13 in 10.0 mi Calm Calm - N/A   Clear
1:14 PM 70.3 °F 37.4 °F 30% 30.13 in 10.0 mi ESE 5.8 mph - N/A   Clear
1:34 PM 71.4 °F 37.4 °F 29% 30.12 in 10.0 mi SSE 3.5 mph - N/A   Clear
1:55 PM 72.5 °F 37.2 °F 28% 30.12 in 10.0 mi East 5.8 mph - N/A   Clear
2:14 PM 73.0 °F 35.4 °F 25% 30.12 in 10.0 mi East 5.8 mph - N/A   Clear
2:34 PM 73.4 °F 35.4 °F 25% 30.12 in 10.0 mi ESE 6.9 mph - N/A   Clear
2:55 PM 73.8 °F 37.4 °F 27% 30.11 in 10.0 mi SSE 6.9 mph - N/A   Clear
3:14 PM 74.5 °F 35.1 °F 24% 30.10 in 10.0 mi ESE 8.1 mph - N/A   Clear
3:34 PM 75.2 °F 36.1 °F 24% 30.09 in 10.0 mi ESE 5.8 mph - N/A   Clear
3:54 PM 75.7 °F 37.9 °F 26% 30.09 in 10.0 mi SSE 8.1 mph - N/A   Clear
4:14 PM 76.5 °F 39.9 °F 27% 30.08 in 10.0 mi SSE 6.9 mph - N/A   Clear
4:35 PM 76.8 °F 40.1 °F 27% 30.07 in 10.0 mi SE 10.4 mph - N/A   Clear
4:54 PM 76.8 °F 40.3 °F 27% 30.07 in 10.0 mi SSE 6.9 mph - N/A   Clear
5:14 PM 77.0 °F 39.2 °F 26% 30.07 in 10.0 mi SE 8.1 mph - N/A   Clear
5:34 PM 76.3 °F 37.9 °F 25% 30.06 in 10.0 mi SE 9.2 mph - N/A   Clear
5:54 PM 77.0 °F 40.3 °F 27% 30.06 in 10.0 mi SE 10.4 mph - N/A   Clear
6:15 PM 77.0 °F 40.3 °F 27% 30.06 in 10.0 mi SSE 6.9 mph - N/A   Clear
6:34 PM 76.3 °F 39.6 °F 27% 30.06 in 10.0 mi SSE 6.9 mph - N/A   Clear
6:54 PM 76.1 °F 38.7 °F 26% 30.06 in 10.0 mi SSE 9.2 mph - N/A   Clear
7:15 PM 75.9 °F 39.4 °F 27% 30.05 in 10.0 mi SSE 6.9 mph - N/A   Clear
7:34 PM 75.4 °F 39.6 °F 27% 30.05 in 10.0 mi SSE 5.8 mph - N/A   Clear
7:54 PM 74.5 °F 39.6 °F 28% 30.06 in 10.0 mi SSE 3.5 mph - N/A   Clear
8:14 PM 72.7 °F 41.0 °F 32% 30.05 in 10.0 mi SSE 4.6 mph - N/A   Clear
8:34 PM 71.8 °F 41.2 °F 33% 30.06 in 10.0 mi SE 3.5 mph - N/A   Clear
8:54 PM 69.8 °F 42.3 °F 37% 30.06 in 10.0 mi SE 4.6 mph - N/A   Clear
9:14 PM 69.1 °F 41.5 °F 37% 30.07 in 10.0 mi SE 3.5 mph - N/A   Clear
9:34 PM 64.6 °F 45.1 °F 49% 30.07 in 10.0 mi Calm Calm - N/A   Clear
9:54 PM 62.2 °F 48.2 °F 60% 30.07 in 10.0 mi SE 3.5 mph - N/A   Clear
10:14 PM 64.4 °F 42.1 °F 44% 30.07 in 10.0 mi SSE 3.5 mph - N/A   Clear
10:34 PM 64.6 °F 39.0 °F 39% 30.07 in 10.0 mi SSE 4.6 mph - N/A   Clear
10:55 PM 64.2 °F 37.4 °F 37% 30.07 in 10.0 mi SSE 5.8 mph - N/A   Clear
11:14 PM 63.7 °F 36.7 °F 37% 30.08 in 10.0 mi SSE 5.8 mph - N/A   Clear
11:34 PM 63.5 °F 36.3 °F 36% 30.08 in 10.0 mi SSE 5.8 mph - N/A   Clear
11:54 PM 62.8 °F 35.2 °F 36% 30.08 in 10.0 mi SSE 5.8 mph - N/A   Clear